Total_Precipitation_Accumulation
0.12 0.31 0.50 0.57 0.71 0.29 0.05 0.02 0.01 0.01 0.00 0.00 0.00 0.00 0.01 0.06 0.18 0.37 0.13 0.06 0.03 0.01 0.01 0.08 0.16 0.14 0.12 0.19 0.29 0.38 0.43 0.52 0.41 0.32 0.24 0.18 0.13 0.15 0.16 0.12 0.15 0.20 0.16 0.13 0.19 0.31 0.36 0.39 0.42
0.26 0.57 0.65 0.86 0.62 0.10 0.06 0.06 0.06 0.04 0.01 0.01 0.01 0.01 0.02 0.03 0.03 0.06 0.11 0.11 0.03 0.01 0.03 0.09 0.14 0.13 0.15 0.22 0.30 0.37 0.43 0.53 0.44 0.31 0.19 0.12 0.11 0.15 0.17 0.27 0.35 0.25 0.13 0.10 0.17 0.31 0.35 0.34 0.41
0.33 0.58 0.71 0.76 0.29 0.09 0.12 0.13 0.11 0.07 0.03 0.02 0.01 0.00 0.02 0.06 0.05 0.07 0.10 0.08 0.04 0.02 0.05 0.14 0.18 0.15 0.17 0.26 0.38 0.42 0.50 0.52 0.44 0.31 0.15 0.10 0.13 0.18 0.28 0.39 0.34 0.18 0.10 0.09 0.15 0.25 0.29 0.26 0.27
0.37 0.66 0.72 0.46 0.21 0.17 0.19 0.21 0.14 0.08 0.03 0.02 0.01 0.02 0.05 0.07 0.08 0.10 0.13 0.11 0.08 0.07 0.08 0.17 0.24 0.18 0.21 0.33 0.48 0.49 0.52 0.55 0.49 0.32 0.16 0.13 0.15 0.17 0.23 0.32 0.28 0.14 0.06 0.06 0.10 0.20 0.26 0.24 0.22
0.32 0.57 0.66 0.42 0.24 0.26 0.25 0.22 0.11 0.08 0.05 0.04 0.02 0.04 0.12 0.14 0.15 0.18 0.24 0.29 0.27 0.18 0.14 0.18 0.25 0.22 0.26 0.40 0.51 0.53 0.56 0.58 0.53 0.33 0.22 0.20 0.19 0.14 0.19 0.22 0.20 0.08 0.04 0.04 0.07 0.15 0.19 0.19 0.22
0.35 0.58 0.82 0.68 0.44 0.33 0.28 0.23 0.12 0.12 0.08 0.08 0.08 0.11 0.15 0.20 0.25 0.27 0.29 0.32 0.35 0.35 0.29 0.25 0.31 0.33 0.35 0.41 0.46 0.50 0.56 0.59 0.53 0.34 0.26 0.24 0.21 0.18 0.17 0.18 0.14 0.05 0.04 0.03 0.05 0.09 0.12 0.13 0.17
0.38 0.61 0.86 0.73 0.53 0.48 0.39 0.22 0.16 0.14 0.12 0.12 0.14 0.18 0.18 0.20 0.26 0.35 0.41 0.42 0.47 0.47 0.45 0.40 0.39 0.38 0.45 0.53 0.55 0.53 0.56 0.58 0.60 0.44 0.32 0.29 0.23 0.16 0.13 0.11 0.06 0.03 0.03 0.02 0.02 0.05 0.06 0.07 0.13
0.19 0.33 0.58 0.62 0.52 0.48 0.37 0.18 0.14 0.11 0.11 0.09 0.13 0.19 0.26 0.28 0.32 0.40 0.45 0.46 0.47 0.48 0.49 0.47 0.46 0.52 0.51 0.52 0.66 0.70 0.67 0.68 0.70 0.55 0.40 0.33 0.21 0.14 0.12 0.07 0.05 0.03 0.03 0.02 0.01 0.02 0.02 0.05 0.11
0.27 0.34 0.65 0.85 0.65 0.48 0.29 0.17 0.11 0.10 0.09 0.08 0.09 0.17 0.24 0.27 0.34 0.39 0.45 0.45 0.47 0.44 0.45 0.47 0.49 0.58 0.62 0.57 0.61 0.82 0.84 0.85 0.80 0.65 0.54 0.42 0.32 0.25 0.18 0.12 0.11 0.07 0.04 0.04 0.04 0.04 0.04 0.04 0.08
0.43 0.53 0.80 0.82 0.48 0.34 0.24 0.19 0.14 0.12 0.11 0.09 0.13 0.20 0.29 0.35 0.42 0.45 0.47 0.50 0.51 0.52 0.47 0.46 0.45 0.48 0.53 0.57 0.69 0.81 0.78 0.75 0.72 0.84 0.72 0.54 0.49 0.40 0.18 0.16 0.17 0.15 0.10 0.08 0.07 0.06 0.04 0.02 0.02
0.34 0.45 0.45 0.50 0.33 0.21 0.17 0.15 0.14 0.15 0.17 0.14 0.16 0.21 0.30 0.40 0.48 0.51 0.54 0.53 0.57 0.55 0.49 0.43 0.39 0.38 0.43 0.54 0.69 0.79 0.89 0.96 0.89 0.84 0.81 0.71 0.54 0.33 0.21 0.19 0.19 0.17 0.15 0.10 0.06 0.03 0.01 0.00 0.01
0.21 0.22 0.21 0.18 0.15 0.15 0.16 0.14 0.13 0.14 0.17 0.15 0.17 0.22 0.31 0.37 0.45 0.48 0.50 0.50 0.49 0.50 0.51 0.46 0.35 0.35 0.36 0.43 0.52 0.60 0.71 0.82 0.84 0.68 0.62 0.64 0.59 0.43 0.28 0.23 0.21 0.17 0.16 0.12 0.06 0.03 0.02 0.01 0.02
0.21 0.18 0.14 0.16 0.17 0.16 0.15 0.16 0.14 0.13 0.17 0.17 0.21 0.27 0.32 0.39 0.45 0.47 0.44 0.43 0.42 0.47 0.53 0.49 0.41 0.39 0.37 0.40 0.42 0.42 0.60 0.76 0.82 0.82 0.69 0.63 0.61 0.55 0.42 0.29 0.26 0.21 0.18 0.15 0.11 0.06 0.04 0.05 0.04
0.13 0.17 0.21 0.21 0.18 0.15 0.13 0.14 0.13 0.18 0.21 0.19 0.19 0.23 0.29 0.37 0.42 0.44 0.42 0.42 0.41 0.44 0.53 0.53 0.51 0.51 0.46 0.40 0.40 0.42 0.50 0.61 0.68 0.80 0.80 0.73 0.63 0.57 0.50 0.39 0.36 0.32 0.28 0.24 0.16 0.08 0.08 0.06 0.03
0.08 0.12 0.17 0.17 0.16 0.15 0.14 0.13 0.14 0.23 0.24 0.21 0.18 0.19 0.23 0.30 0.34 0.36 0.37 0.37 0.41 0.41 0.44 0.45 0.46 0.54 0.54 0.52 0.50 0.50 0.59 0.61 0.68 0.73 0.73 0.78 0.67 0.57 0.56 0.53 0.48 0.43 0.40 0.34 0.25 0.17 0.11 0.08 0.05
0.10 0.15 0.24 0.19 0.18 0.19 0.19 0.16 0.16 0.25 0.24 0.22 0.22 0.22 0.21 0.24 0.28 0.31 0.34 0.34 0.37 0.36 0.37 0.42 0.41 0.47 0.56 0.61 0.64 0.69 0.71 0.75 0.81 0.77 0.73 0.74 0.68 0.63 0.69 0.66 0.62 0.59 0.47 0.39 0.36 0.30 0.21 0.15 0.10
0.20 0.19 0.22 0.21 0.16 0.18 0.20 0.17 0.18 0.24 0.21 0.20 0.20 0.21 0.21 0.23 0.26 0.29 0.31 0.32 0.33 0.34 0.35 0.39 0.43 0.49 0.54 0.60 0.71 0.81 0.88 0.96 1.09 1.05 1.00 0.94 0.83 0.84 0.89 0.89 0.83 0.78 0.71 0.59 0.46 0.39 0.35 0.30 0.22
0.33 0.14 0.12 0.12 0.14 0.15 0.17 0.18 0.18 0.20 0.18 0.16 0.16 0.15 0.18 0.21 0.25 0.28 0.30 0.32 0.34 0.33 0.35 0.39 0.47 0.54 0.63 0.79 1.01 1.23 1.31 1.47 1.70 1.65 1.50 1.32 1.15 1.10 1.18 1.13 1.05 1.03 1.04 0.97 0.71 0.63 0.55 0.46 0.35
0.15 0.10 0.09 0.10 0.12 0.11 0.11 0.12 0.13 0.13 0.12 0.12 0.12 0.12 0.12 0.13 0.17 0.20 0.22 0.25 0.24 0.23 0.27 0.34 0.40 0.50 0.60 0.82 1.14 1.58 1.79 1.89 1.91 1.93 1.84 1.64 1.42 1.42 1.54 1.49 1.44 1.39 1.31 1.19 1.02 1.02 0.90 0.66 0.46
0.09 0.09 0.08 0.06 0.08 0.07 0.06 0.06 0.06 0.06 0.07 0.08 0.08 0.09 0.09 0.11 0.12 0.11 0.13 0.15 0.14 0.14 0.17 0.26 0.33 0.42 0.55 0.82 1.13 1.48 1.83 1.91 1.92 1.92 1.87 1.75 1.64 1.64 1.67 1.82 1.87 1.81 1.83 1.76 1.50 1.49 1.39 1.06 0.75
0.07 0.10 0.10 0.07 0.05 0.05 0.04 0.04 0.04 0.04 0.05 0.06 0.06 0.07 0.08 0.10 0.11 0.09 0.08 0.09 0.10 0.11 0.12 0.18 0.24 0.38 0.66 0.99 1.30 1.49 1.78 1.90 1.95 1.89 1.90 1.94 1.89 1.79 1.80 1.89 2.00 1.99 2.01 2.03 2.01 1.86 1.83 1.58 1.16
0.06 0.06 0.05 0.05 0.05 0.04 0.04 0.05 0.04 0.06 0.10 0.12 0.13 0.13 0.15 0.17 0.14 0.12 0.09 0.07 0.08 0.09 0.11 0.14 0.20 0.39 0.73 1.07 1.33 1.56 1.91 2.01 1.94 1.97 1.98 2.01 2.03 1.99 2.03 2.03 2.10 2.10 2.07 2.10 2.14 2.01 2.00 1.98 1.60
0.03 0.03 0.03 0.04 0.05 0.04 0.03 0.05 0.05 0.08 0.15 0.21 0.23 0.23 0.23 0.20 0.15 0.12 0.10 0.09 0.10 0.10 0.13 0.19 0.33 0.51 0.76 0.97 1.23 1.57 1.81 1.93 2.06 2.01 2.00 2.01 2.05 2.05 2.07 2.12 2.24 2.22 2.13 2.09 2.24 2.21 2.17 2.05 1.92
0.01 0.02 0.04 0.05 0.07 0.06 0.03 0.07 0.13 0.17 0.19 0.21 0.22 0.23 0.23 0.20 0.16 0.16 0.15 0.15 0.16 0.18 0.24 0.33 0.48 0.63 0.83 1.00 1.19 1.38 1.63 1.77 1.92 2.02 1.94 1.93 1.96 2.03 1.92 1.86 1.97 2.01 2.01 2.00 2.11 2.24 2.30 2.21 2.19
0.01 0.04 0.10 0.13 0.16 0.12 0.07 0.16 0.28 0.23 0.18 0.19 0.20 0.21 0.23 0.24 0.26 0.30 0.31 0.34 0.41 0.44 0.47 0.55 0.65 0.75 0.86 0.95 1.04 1.10 1.27 1.43 1.49 1.63 1.72 1.82 1.84 1.88 1.88 1.77 1.75 1.72 1.67 1.70 1.79 1.86 1.90 1.98 2.10
0.01 0.03 0.10 0.15 0.15 0.15 0.17 0.36 0.41 0.27 0.23 0.22 0.23 0.25 0.29 0.37 0.43 0.53 0.61 0.69 0.76 0.75 0.74 0.80 0.85 0.84 0.82 0.87 0.93 0.95 1.01 1.09 1.15 1.18 1.23 1.38 1.55 1.59 1.65 1.63 1.56 1.56 1.60 1.60 1.65 1.66 1.66 1.64 1.68
0.01 0.03 0.06 0.13 0.12 0.13 0.20 0.43 0.44 0.32 0.31 0.31 0.32 0.33 0.42 0.61 0.71 0.81 0.91 0.92 0.93 0.90 0.85 0.86 0.88 0.86 0.84 0.84 0.83 0.79 0.77 0.81 0.90 0.92 0.98 1.03 1.12 1.15 1.22 1.30 1.33 1.36 1.42 1.47 1.57 1.63 1.63 1.55 1.50
0.03 0.07 0.13 0.26 0.34 0.30 0.31 0.48 0.52 0.44 0.39 0.37 0.41 0.49 0.65 0.91 1.06 1.19 1.27 1.17 1.10 1.09 1.13 1.01 0.92 0.85 0.82 0.82 0.81 0.75 0.70 0.72 0.74 0.75 0.82 0.80 0.81 0.81 0.86 0.97 1.09 1.21 1.32 1.41 1.48 1.51 1.58 1.58 1.53
0.10 0.16 0.24 0.37 0.45 0.57 0.70 0.85 0.68 0.58 0.58 0.65 0.75 0.83 1.00 1.26 1.43 1.52 1.53 1.43 1.23 1.10 1.09 1.03 0.92 0.81 0.71 0.70 0.75 0.74 0.67 0.67 0.69 0.67 0.64 0.60 0.62 0.66 0.75 0.79 0.89 0.99 1.09 1.26 1.43 1.47 1.49 1.49 1.46
0.22 0.37 0.50 0.74 0.74 0.67 0.87 1.09 0.84 0.69 0.71 0.74 0.80 0.92 1.10 1.22 1.30 1.34 1.30 1.29 1.18 1.08 0.99 0.95 0.84 0.71 0.65 0.69 0.71 0.72 0.63 0.58 0.60 0.58 0.58 0.52 0.50 0.53 0.60 0.69 0.82 0.93 0.96 0.97 1.09 1.16 1.18 1.19 1.24